Location: Lake Zurich
(42.1970°N, 88.0930°W)
Time: 23:18:55
(UTC-05:00)

Amateur Radio Satellites - All Passes

Search period start: 30 August 2016 22:48
Search period end: 31 August 2016 22:48
Location: Lake Zurich, 42.1970°N, 88.0930°W

Satellite Date Start Highest point End Downlink Frequencies (MHz)
Time Altitude Azimuth
RS-15 30 Aug 22:52:26 22:57:19 14° 93° (E) 23:02:18 29.354- 29.394
AUBIESAT-1 30 Aug 22:54:45 22:59:23 73° 70° (ENE) 23:03:58 437.475
M-CUBED/EXP-1 PRIME 30 Aug 23:03:28 23:08:10 77° 252° (WSW) 23:12:53 437.505
CUSAT 1 30 Aug 23:06:03 23:09:03 48° 94° (E) 23:12:51 437.405
UKube-1 30 Aug 23:08:46 23:11:24 16° 63° (ENE) 23:14:04 .
GONETS M04 30 Aug 23:14:09 23:23:06 87° 85° (E) 23:31:56
JAS-2 30 Aug 23:15:53 23:18:25 12° 86° (E) 23:20:59 435.910
AISAT 30 Aug 23:17:25 23:21:32 37° 70° (ENE) 23:25:41 437.250
TIGRISAT 30 Aug 23:18:08 23:22:26 82° 105° (ESE) 23:26:40 435.000
ESTCUBE 1 30 Aug 23:23:31 23:27:59 77° 76° (ENE) 23:32:30 437.505/2401.250
HUMSAT D 30 Aug 23:23:55 23:26:40 17° 267° (W) 23:29:25 437.325/437.525
QB50P1 30 Aug 23:38:08 23:41:14 20° 93° (E) 23:44:20 145.935-145.965
UNISAT 6 30 Aug 23:48:11 23:52:14 43° 289° (WNW) 23:56:15 437.425
POPSAT HIP 1 30 Aug 23:48:11 23:51:42 25° 95° (E) 23:55:10 437.405
Cosmos 2499 30 Aug 23:49:15 23:56:16 69° 266° (W) 00:03:23 435.465 / 435.565
50 SAT 30 Aug 23:51:42 23:55:16 85° 76° (ENE) 23:58:52 437.505
CUBEBUG 1 30 Aug 23:56:41 00:01:05 72° 259° (W) 00:05:31 437.445
SPROUT 30 Aug 23:57:42 00:01:50 47° 72° (ENE) 00:05:59 437.525
O/OREOS (USA 219) 30 Aug 23:58:21 00:02:38 39° 254° (WSW) 00:06:53 437.305
VELOX 1 31 Aug 00:04:00 00:08:26 73° 258° (WSW) 00:12:55 145.980
TISAT 1 31 Aug 00:05:58 00:08:07 14° 63° (ENE) 00:10:15 437.305
DX 1 31 Aug 00:09:05 00:13:27 87° 76° (ENE) 00:17:52 434.975-435.025
DUCHIFAT 1 31 Aug 00:11:15 00:15:13 40° 98° (E) 00:19:08 145.980
SO-50 31 Aug 00:14:03 00:18:24 32° 313° (NW) 00:22:42 436.795
QB50P2 31 Aug 00:19:02 00:23:15 61° 102° (ESE) 00:27:23 145.880/145.840
POLYITAN 1 31 Aug 00:21:33 00:25:44 62° 101° (ESE) 00:29:52 437.675
ANTELSAT 31 Aug 00:25:52 00:28:51 19° 295° (WNW) 00:31:48 437.575/2403.000
NANOSAT C BR1 31 Aug 00:26:43 00:30:55 66° 102° (ESE) 00:35:04 145.865
AUBIESAT-1 31 Aug 00:32:15 00:34:13 13° 265° (W) 00:36:11 437.475
DANDE 31 Aug 00:37:37 00:40:01 30° 287° (WNW) 00:42:44 436.750
UKube-1 31 Aug 00:42:50 00:47:03 51° 260° (W) 00:51:17 .
BUGSAT 1 31 Aug 00:51:29 00:55:28 47° 99° (E) 00:59:24 437.445
AISAT 31 Aug 00:54:44 00:58:06 21° 266° (W) 01:01:31 437.250
RS-15 31 Aug 00:55:48 01:07:06 66° 115° (ESE) 01:19:01 29.354- 29.394
JAS-2 31 Aug 00:57:20 01:04:19 70° 102° (ESE) 01:11:58 435.910
ESTCUBE 1 31 Aug 01:05:02 01:05:20 10° 272° (W) 01:05:37 437.505/2401.250
PHONESAT 2.4 31 Aug 01:06:49 01:09:35 34° 162° (SSE) 01:12:21 2401.200-2431.200
GONETS M04 31 Aug 01:12:57 01:18:39 19° 283° (WNW) 01:24:22
QB50P1 31 Aug 01:13:17 01:17:06 35° 290° (WNW) 01:20:55 145.935-145.965
SWISSCUBE 31 Aug 01:19:55 01:23:23 21° 64° (ENE) 01:26:52 437.505
POPSAT HIP 1 31 Aug 01:23:51 01:27:26 28° 292° (WNW) 01:31:01 437.405
SPROUT 31 Aug 01:35:26 01:38:02 15° 269° (W) 01:40:36 437.525
BEESAT 31 Aug 01:36:04 01:40:00 26° 66° (ENE) 01:43:56 436.000
TISAT 1 31 Aug 01:39:05 01:43:16 58° 259° (W) 01:47:29 437.305
DUCHIFAT 1 31 Aug 01:47:44 01:50:36 18° 295° (WNW) 01:53:27 145.980
QB50P2 31 Aug 01:56:36 01:58:31 13° 298° (WNW) 02:00:26 145.880/145.840
POLYITAN 1 31 Aug 01:59:10 02:01:01 13° 298° (WNW) 02:02:51 437.675
NANOSAT C BR1 31 Aug 02:04:30 02:06:05 12° 298° (WNW) 02:07:40 145.865
Oscar 19 31 Aug 02:09:19 02:14:28 57° 101° (E) 02:19:33 437.125/150
Gurwin Techsat 1B 31 Aug 02:10:11 02:14:41 27° 95° (E) 02:19:09 435.225
ITUPSAT 1 31 Aug 02:25:00 02:29:45 78° 75° (ENE) 02:34:31 437.325
BUGSAT 1 31 Aug 02:28:04 02:30:27 15° 296° (WNW) 02:32:48 437.445
PHONESAT 2.4 31 Aug 02:42:45 02:45:44 63° 179° (S) 02:48:42 2401.200-2431.200
JAS-2 31 Aug 02:43:24 02:48:51 26° 298° (WNW) 02:54:42 435.910
AO-7 31 Aug 02:52:13 02:55:43 13° 87° (E) 02:59:13 29.400- 29.500
MOZHAYETS 4 31 Aug 02:54:16 02:57:51 23° 66° (ENE) 03:01:27
SWISSCUBE 31 Aug 02:56:19 03:00:52 45° 261° (W) 03:05:26 437.505
Cosmos 2491 31 Aug 02:57:38 03:00:02 11° 53° (NE) 03:02:25 435.465 / 435.565
RS-15 31 Aug 03:09:11 03:20:17 45° 321° (NW) 03:31:55 29.354- 29.394
BEESAT 31 Aug 03:13:19 03:17:38 34° 263° (W) 03:21:59 436.000
ITAMSAT 1 31 Aug 03:31:40 03:36:39 45° 100° (E) 03:41:35 435.822/435.867
Oscar 19 31 Aug 03:49:40 03:53:20 20° 298° (WNW) 03:56:59 437.125/150
Gurwin Techsat 1B 31 Aug 03:49:48 03:54:43 39° 292° (WNW) 03:59:36 435.225
KKS-1 31 Aug 03:56:57 04:01:26 82° 76° (ENE) 04:05:57 437.445
ITUPSAT 1 31 Aug 04:06:46 04:08:08 11° 271° (W) 04:09:31 437.325
AO-85 31 Aug 04:11:53 04:16:43 36° 115° (ESE) 04:21:21 145.980
YUBILEINY 31 Aug 04:14:19 04:16:43 11° 72° (ENE) 04:19:07 435.215
PHONESAT 2.4 31 Aug 04:19:04 04:21:54 38° 195° (SSW) 04:24:43 2401.200-2431.200
STARS 31 Aug 04:22:30 04:26:56 75° 74° (ENE) 04:31:22 437.465
CUBESAT XI-V 31 Aug 04:24:11 04:28:00 26° 67° (ENE) 04:31:51 437.345
MOZHAYETS 4 31 Aug 04:30:39 04:34:49 35° 263° (W) 04:39:02
AO-7 31 Aug 04:41:32 04:49:52 72° 106° (ESE) 04:58:08 29.400- 29.500
Cosmos 2491 31 Aug 04:50:29 04:59:12 57° 77° (ENE) 05:07:50 435.465 / 435.565
HORYU 2 31 Aug 05:10:20 05:13:44 21° 94° (E) 05:17:08 437.375
ITAMSAT 1 31 Aug 05:11:45 05:15:49 24° 296° (WNW) 05:19:53 435.822/435.867
BRITE-PL 31 Aug 05:25:49 05:29:44 19° 89° (E) 05:33:32 437.365/2234.400
RS-15 31 Aug 05:27:43 05:37:07 25° 354° (N) 05:46:44 29.354- 29.394
STRAND 1 31 Aug 05:41:35 05:43:08 11° 57° (ENE) 05:44:41 437.568
Cosmos 2504 31 Aug 05:50:46 05:55:56 18° 80° (E) 06:00:54 435.465 / 435.565
AO-85 31 Aug 05:52:26 05:57:13 35° 311° (NW) 06:01:46 145.980
PHONESAT 2.4 31 Aug 05:56:45 05:57:44 11° 211° (SSW) 05:58:43 2401.200-2431.200
CUBESAT XI-V 31 Aug 06:01:07 06:05:15 32° 264° (W) 06:09:26 437.345
YUBILEINY 31 Aug 06:02:57 06:11:38 65° 92° (E) 06:20:20 435.215
STARS 31 Aug 06:03:14 06:03:47 10° 271° (W) 06:04:20 437.465
NOAA 18 31 Aug 06:13:07 06:16:42 17° 92° (E) 06:20:14 137.9125
GOMX 1 31 Aug 06:19:57 06:24:20 25° 92° (E) 06:28:31 467.674
ISS 31 Aug 06:27:15 06:28:21 11° 129° (SE) 06:29:27 145.825
NOAA 15 31 Aug 06:28:03 06:32:53 35° 97° (E) 06:37:43 137.62
Cubesat XI-IV 31 Aug 06:29:07 06:33:38 28° 95° (E) 06:38:09 437.490
AO-7 31 Aug 06:35:14 06:41:56 28° 305° (NW) 06:48:37 29.400- 29.500
CUTE-I 31 Aug 06:39:29 06:44:20 35° 97° (E) 06:49:09 437.470
LilacSat-2 31 Aug 06:41:29 06:44:57 33° 97° (E) 06:48:22 437.200
HORYU 2 31 Aug 06:46:21 06:50:23 35° 290° (WNW) 06:54:24 437.375
Cosmos 2491 31 Aug 06:48:03 06:55:32 32° 277° (W) 07:03:02 435.465 / 435.565
BRITE-PL 31 Aug 07:02:59 07:08:38 63° 287° (WNW) 07:14:04 437.365/2234.400
SO-50 31 Aug 07:04:18 07:08:37 37° 49° (NE) 07:12:48 436.795
STRAND 1 31 Aug 07:16:23 07:21:30 83° 74° (ENE) 07:26:36 437.568
CANX-2 31 Aug 07:36:06 07:37:58 13° 90° (E) 07:39:50 2200.000
Cosmos 2504 31 Aug 07:39:59 07:48:22 85° 276° (W) 07:56:12 435.465 / 435.565
CUTE 1.7 + AOD 2 31 Aug 07:41:27 07:43:16 12° 90° (E) 07:45:06 437.475
RS-15 31 Aug 07:44:01 07:54:52 34° 29° (NNE) 08:05:41 29.354- 29.394
DOVE 4 31 Aug 07:44:09 07:49:09 73° 102° (ESE) 07:53:49 437.250
NOAA 18 31 Aug 07:52:23 07:57:47 63° 288° (WNW) 08:03:09 137.9125
CINEMA 3 31 Aug 07:56:46 08:00:27 25° 94° (E) 08:03:58 145.822/145.860
GOMX 1 31 Aug 07:57:32 08:02:33 41° 290° (WNW) 08:07:18 467.674
AIST 1 31 Aug 07:58:47 08:01:03 14° 84° (E) 08:03:18
ISS 31 Aug 08:01:04 08:04:21 86° 326° (NW) 08:07:38 145.825
YUBILEINY 31 Aug 08:01:41 08:09:04 29° 293° (WNW) 08:16:30 435.215
NOAA 15 31 Aug 08:07:56 08:12:34 31° 294° (WNW) 08:17:11 137.62
Cubesat XI-IV 31 Aug 08:08:53 08:13:47 38° 292° (WNW) 08:18:39 437.490
LilacSat-2 31 Aug 08:16:30 08:18:59 17° 293° (WNW) 08:21:29 437.200
CUTE-I 31 Aug 08:19:40 08:24:17 31° 294° (WNW) 08:28:53 437.470
HO-68 31 Aug 08:21:19 08:28:03 42° 98° (E) 08:34:45 435.675
SEEDS 31 Aug 08:40:20 08:44:18 39° 98° (E) 08:48:16 437.485
PRISM 31 Aug 08:44:42 08:48:46 78° 76° (ENE) 08:52:56 437.425
SO-50 31 Aug 08:45:07 08:48:55 26° 247° (WSW) 08:52:38 436.795
BRITE-PL 31 Aug 08:45:39 08:45:56 10° 305° (NW) 08:46:13 437.365/2234.400
BEESAT 2 31 Aug 08:47:18 08:50:36 26° 114° (ESE) 08:53:56 435.950
BEESAT 3 31 Aug 08:56:33 09:00:26 67° 120° (ESE) 09:04:21 437.485
FUNcube-1 31 Aug 08:57:03 08:58:18 11° 90° (E) 08:59:34 145.935
STRAND 1 31 Aug 08:59:38 09:01:17 11° 271° (W) 09:02:56 437.568
AAUSAT CUBESAT 2 31 Aug 08:59:57 09:03:48 35° 97° (E) 09:07:38 437.432
CANX-2 31 Aug 09:10:01 09:14:11 56° 286° (WNW) 09:18:21 2200.000
COMPASS 1 31 Aug 09:11:51 09:16:01 63° 101° (E) 09:20:10 437.405
UNISAT 6 31 Aug 09:11:58 09:14:58 18° 65° (ENE) 09:17:57 437.425
UWE-3 31 Aug 09:13:24 09:17:06 30° 96° (E) 09:20:44 435.000/436.395/437.385
CUTE 1.7 + AOD 2 31 Aug 09:15:17 09:19:28 57° 286° (WNW) 09:23:38 437.475
ZACube-1 31 Aug 09:19:08 09:22:24 22° 94° (E) 09:25:37 437.345
DOVE 4 31 Aug 09:23:34 09:26:07 14° 300° (WNW) 09:28:36 437.250
CUBEBUG 2 31 Aug 09:24:01 09:28:12 61° 101° (E) 09:32:17 437.445
DANDE 31 Aug 09:28:54 09:33:06 20° 70° (ENE) 09:37:57 436.750
CINEMA 3 31 Aug 09:33:43 09:37:35 29° 292° (WNW) 09:41:18 145.822/145.860
AIST 1 31 Aug 09:33:54 09:38:09 50° 281° (WNW) 09:42:27
CUSAT 1 31 Aug 09:35:11 09:41:48 53° 76° (ENE) 09:49:28 437.405
Cosmos 2504 31 Aug 09:37:50 09:42:50 17° 297° (WNW) 09:47:39 435.465 / 435.565
ISS 31 Aug 09:38:36 09:41:11 21° 344° (NNW) 09:43:47 145.825
ANTELSAT 31 Aug 09:47:19 09:51:33 39° 71° (ENE) 09:55:43 437.575/2403.000
RS-15 31 Aug 09:57:02 10:09:31 83° 57° (ENE) 10:21:44 29.354- 29.394
DELFI C3 31 Aug 10:04:45 10:08:18 29° 96° (E) 10:11:49 145.870
HO-68 31 Aug 10:09:10 10:15:42 39° 297° (WNW) 10:22:11 435.675
TIGRISAT 31 Aug 10:16:41 10:21:15 76° 76° (ENE) 10:25:44 435.000
SEEDS 31 Aug 10:16:47 10:19:43 19° 294° (WNW) 10:22:39 437.485
Oscar 11 31 Aug 10:17:41 10:22:00 79° 285° (WNW) 10:26:20 145.826/435.025
GONETS M04 31 Aug 10:22:23 10:28:18 21° 78° (ENE) 10:34:13
BEESAT 2 31 Aug 10:24:50 10:28:19 30° 311° (NW) 10:31:52 435.950
FUNcube-1 31 Aug 10:30:52 10:34:57 59° 286° (WNW) 10:39:00 145.935
QB50P1 31 Aug 10:31:28 10:34:15 17° 65° (ENE) 10:37:03 145.935-145.965
PCSat 31 Aug 10:31:51 10:36:31 31° 109° (ESE) 10:41:13 145.827
AAUSAT CUBESAT 2 31 Aug 10:35:59 10:39:03 20° 293° (WNW) 10:42:07 437.432
BEESAT 3 31 Aug 10:36:11 10:38:32 15° 319° (NW) 10:40:52 437.485
Cosmos 2499 31 Aug 10:36:28 10:41:11 17° 80° (E) 10:45:43 435.465 / 435.565
POPSAT HIP 1 31 Aug 10:41:22 10:44:36 21° 66° (ENE) 10:47:50 437.405
UNISAT 6 31 Aug 10:46:54 10:51:20 48° 261° (W) 10:55:41 437.425
COMPASS 1 31 Aug 10:49:17 10:51:03 12° 297° (WNW) 10:52:49 437.405
UWE-3 31 Aug 10:50:09 10:53:25 23° 293° (WNW) 10:56:39 435.000/436.395/437.385
ZACube-1 31 Aug 10:55:05 10:58:42 30° 290° (WNW) 11:02:19 437.345
CUBEBUG 2 31 Aug 11:02:33 11:04:17 12° 298° (WNW) 11:06:00 437.445
DUCHIFAT 1 31 Aug 11:03:28 11:07:15 32° 70° (ENE) 11:11:02 145.980
HUMSAT D 31 Aug 11:04:57 11:09:02 70° 102° (ESE) 11:13:08 437.325/437.525
DANDE 31 Aug 11:10:12 11:16:03 75° 262° (W) 11:23:32 436.750
QB50P2 31 Aug 11:11:48 11:15:54 48° 72° (ENE) 11:20:02 145.880/145.840
JAS-2 31 Aug 11:12:04 11:16:27 27° 63° (ENE) 11:21:09 435.910
POLYITAN 1 31 Aug 11:14:17 11:18:24 48° 73° (ENE) 11:22:32 437.675
ISS 31 Aug 11:16:24 11:18:33 16° 5° (N) 11:20:42 145.825
ESTCUBE 1 31 Aug 11:16:44 11:19:29 16° 91° (E) 11:22:14 437.505/2401.250
CUSAT 1 31 Aug 11:17:37 11:23:37 33° 270° (W) 11:30:22 437.405
NANOSAT C BR1 31 Aug 11:18:57 11:23:05 51° 73° (ENE) 11:27:13 145.865
ANTELSAT 31 Aug 11:24:57 11:28:22 21° 266° (W) 11:31:45 437.575/2403.000
AIST 2 31 Aug 11:32:36 11:36:38 62° 120° (ESE) 11:40:44 435.215
DELFI C3 31 Aug 11:39:52 11:42:59 22° 292° (WNW) 11:46:06 145.870
BUGSAT 1 31 Aug 11:41:21 11:45:15 36° 70° (ENE) 11:49:08 437.445
CUBEBUG 1 31 Aug 11:45:33 11:48:51 20° 93° (E) 11:52:07 437.445
Oscar 19 31 Aug 11:51:16 11:53:11 12° 57° (ENE) 11:55:06 437.125/150
VELOX 1 31 Aug 11:54:22 11:57:41 20° 93° (E) 12:00:59 145.980
TIGRISAT 31 Aug 11:57:31 11:58:24 10° 271° (W) 11:59:17 435.000
DX 1 31 Aug 11:58:14 12:00:40 14° 92° (E) 12:03:04 434.975-435.025
QB50P1 31 Aug 12:05:35 12:09:41 44° 261° (W) 12:13:48 145.935-145.965
AUBIESAT-1 31 Aug 12:08:12 12:12:00 44° 104° (ESE) 12:15:29 437.475
RS-15 31 Aug 12:10:53 12:20:38 29° 258° (WSW) 12:30:14 29.354- 29.394
PCSat 31 Aug 12:14:41 12:19:46 40° 307° (NW) 12:24:54 145.827
GONETS M04 31 Aug 12:15:09 12:23:56 83° 277° (W) 12:32:50
POPSAT HIP 1 31 Aug 12:16:15 12:20:10 35° 263° (W) 12:24:06 437.405
M-CUBED/EXP-1 PRIME 31 Aug 12:17:28 12:21:30 75° 107° (ESE) 12:25:11 437.505
Cosmos 2499 31 Aug 12:25:17 12:33:22 86° 277° (W) 12:40:53 435.465 / 435.565
UKube-1 31 Aug 12:29:46 12:33:19 24° 95° (E) 12:36:51 .
O/OREOS (USA 219) 31 Aug 12:32:39 12:36:06 22° 102° (ESE) 12:39:34 437.305
DUCHIFAT 1 31 Aug 12:39:38 12:42:58 22° 266° (W) 12:46:19 145.980
AISAT 31 Aug 12:42:58 12:47:27 71° 103° (ESE) 12:51:51 437.250
HUMSAT D 31 Aug 12:43:07 12:44:05 11° 298° (WNW) 12:45:03 437.325/437.525
AO-85 31 Aug 12:43:33 12:47:25 31° 47° (NE) 12:51:01 145.980
QB50P2 31 Aug 12:49:29 12:51:58 15° 268° (W) 12:54:28 145.880/145.840
POLYITAN 1 31 Aug 12:52:01 12:54:28 15° 268° (W) 12:56:56 437.675
ESTCUBE 1 31 Aug 12:52:10 12:56:35 51° 288° (WNW) 13:00:59 437.505/2401.250
50 SAT 31 Aug 12:52:42 12:56:22 83° 284° (WNW) 13:00:01 437.505
ISS 31 Aug 12:52:43 12:55:44 33° 24° (NNE) 12:58:45 145.825
DANDE 31 Aug 12:56:15 12:58:20 12° 275° (W) 13:00:32 436.750
JAS-2 31 Aug 12:56:27 13:01:21 39° 263° (W) 13:06:38 435.910
NANOSAT C BR1 31 Aug 12:56:49 12:59:05 14° 269° (W) 13:01:22 145.865
AIST 2 31 Aug 13:12:47 13:15:31 17° 319° (NW) 13:18:16 435.215
ITAMSAT 1 31 Aug 13:16:01 13:16:37 10° 56° (NE) 13:17:14 435.822/435.867
BUGSAT 1 31 Aug 13:17:35 13:20:42 20° 266° (W) 13:23:51 437.445
SPROUT 31 Aug 13:18:41 13:22:59 87° 98° (E) 13:27:15 437.525
CUBEBUG 1 31 Aug 13:21:09 13:25:15 38° 290° (WNW) 13:29:19 437.445
TISAT 1 31 Aug 13:23:12 13:26:18 20° 94° (E) 13:29:23 437.305
Oscar 19 31 Aug 13:26:30 13:31:41 85° 75° (ENE) 13:36:54 437.125/150
VELOX 1 31 Aug 13:30:08 13:34:17 38° 290° (WNW) 13:38:24 145.980
Gurwin Techsat 1B 31 Aug 13:31:33 13:36:35 45° 69° (ENE) 13:41:38 435.225
DX 1 31 Aug 13:32:53 13:37:09 52° 288° (WNW) 13:41:24 434.975-435.025
AUBIESAT-1 31 Aug 13:43:44 13:46:02 15° 303° (WNW) 13:48:14 437.475
AO-7 31 Aug 13:50:57 13:57:14 25° 52° (NE) 14:03:30 29.400- 29.500
M-CUBED/EXP-1 PRIME 31 Aug 13:54:31 13:55:19 10° 306° (NW) 13:56:06 437.505
UKube-1 31 Aug 14:05:33 14:09:21 30° 292° (WNW) 14:13:09 .
O/OREOS (USA 219) 31 Aug 14:11:05 14:15:15 37° 299° (WNW) 14:19:29 437.305
GONETS M04 31 Aug 14:16:37 14:22:15 18° 300° (WNW) 14:27:56
AISAT 31 Aug 14:21:24 14:23:18 13° 299° (WNW) 14:25:13 437.250
Cosmos 2499 31 Aug 14:22:54 14:27:30 16° 297° (WNW) 14:31:59 435.465 / 435.565
AO-85 31 Aug 14:24:14 14:27:43 26° 247° (WSW) 14:31:02 145.980
ITUPSAT 1 31 Aug 14:25:54 14:29:16 19° 93° (E) 14:32:38 437.325
ISS 31 Aug 14:29:10 14:32:14 36° 222° (SW) 14:35:16 145.825
ITAMSAT 1 31 Aug 14:50:01 14:55:10 73° 73° (ENE) 15:00:21 435.822/435.867
SWISSCUBE 31 Aug 14:55:43 15:00:16 42° 99° (E) 15:04:47 437.505
TISAT 1 31 Aug 14:58:14 15:02:02 34° 290° (WNW) 15:05:49 437.305
Oscar 19 31 Aug 15:10:02 15:11:39 11° 272° (W) 15:13:16 437.125/150
BEESAT 31 Aug 15:12:15 15:16:57 56° 101° (E) 15:21:38 436.000
Gurwin Techsat 1B 31 Aug 15:12:32 15:16:43 23° 266° (W) 15:20:56 435.225
AO-7 31 Aug 15:40:41 15:49:04 84° 253° (WSW) 15:57:28 29.400- 29.500
KKS-1 31 Aug 15:48:51 15:51:23 15° 91° (E) 15:53:55 437.445
ITUPSAT 1 31 Aug 16:02:46 16:07:21 47° 289° (WNW) 16:11:54 437.325
Cosmos 2491 31 Aug 16:03:38 16:05:31 11° 71° (ENE) 16:07:26 435.465 / 435.565
HORYU 2 31 Aug 16:08:54 16:12:22 22° 66° (ENE) 16:15:49 437.375
YUBILEINY 31 Aug 16:12:56 16:20:38 33° 69° (ENE) 16:28:14 435.215
STARS 31 Aug 16:13:15 16:15:15 13° 91° (E) 16:17:13 437.465
MOZHAYETS 4 31 Aug 16:24:34 16:29:02 49° 100° (E) 16:33:28
ITAMSAT 1 31 Aug 16:32:38 16:35:10 14° 270° (W) 16:37:43 435.822/435.867
SWISSCUBE 31 Aug 16:34:09 16:37:46 22° 296° (WNW) 16:41:24 437.505
BRITE-PL 31 Aug 16:36:58 16:40:43 21° 62° (ENE) 16:44:39 437.365/2234.400
BEESAT 31 Aug 16:51:13 16:54:18 17° 298° (WNW) 16:57:21 436.000
BEESAT 2 31 Aug 17:04:31 17:07:40 22° 45° (NE) 17:10:49 435.950
BEESAT 3 31 Aug 17:13:17 17:17:06 44° 52° (NE) 17:20:55 437.485
DOVE 4 31 Aug 17:15:49 17:17:17 11° 58° (ENE) 17:18:44 437.250
KKS-1 31 Aug 17:23:54 17:28:16 52° 288° (WNW) 17:32:34 437.445
LilacSat-2 31 Aug 17:24:30 17:27:15 19° 68° (ENE) 17:30:00 437.200
GOMX 1 31 Aug 17:27:47 17:32:15 29° 66° (ENE) 17:36:55 467.674
Cosmos 2504 31 Aug 17:32:31 17:38:54 33° 71° (ENE) 17:45:13 435.465 / 435.565
AO-7 31 Aug 17:37:59 17:42:57 17° 271° (W) 17:47:56 29.400- 29.500
NOAA 18 31 Aug 17:39:17 17:44:17 36° 67° (ENE) 17:49:17 137.9125
HORYU 2 31 Aug 17:44:36 17:48:43 36° 262° (W) 17:52:49 437.375
STARS 31 Aug 17:47:39 17:51:59 59° 287° (WNW) 17:56:16 437.465
NOAA 15 31 Aug 17:48:27 17:53:35 58° 71° (ENE) 17:58:47 137.62
Cubesat XI-IV 31 Aug 17:51:23 17:56:29 48° 70° (ENE) 18:01:37 437.490
Cosmos 2491 31 Aug 17:51:53 18:00:26 64° 92° (E) 18:09:04 435.465 / 435.565
CUBESAT XI-V 31 Aug 17:56:23 18:01:03 59° 100° (E) 18:05:42 437.345
CUTE-I 31 Aug 18:01:39 18:06:52 60° 72° (ENE) 18:12:08 437.470
MOZHAYETS 4 31 Aug 18:02:45 18:05:48 18° 296° (WNW) 18:08:52
YUBILEINY 31 Aug 18:09:22 18:17:51 57° 270° (W) 18:26:16 435.215
BRITE-PL 31 Aug 18:13:50 18:18:42 53° 262° (W) 18:23:59 437.365/2234.400
CANX-2 31 Aug 18:31:07 18:31:45 10° 61° (ENE) 18:32:23 2200.000
CUTE 1.7 + AOD 2 31 Aug 18:36:28 18:36:57 10° 61° (ENE) 18:37:27 437.475
BEESAT 2 31 Aug 18:41:52 18:45:39 40° 243° (WSW) 18:49:23 435.950
DOVE 4 31 Aug 18:48:48 18:54:01 76° 76° (ENE) 18:59:21 437.250
HO-68 31 Aug 18:50:40 18:56:58 34° 62° (ENE) 19:03:15 435.675
BEESAT 3 31 Aug 18:51:52 18:54:25 17° 249° (WSW) 18:56:59 437.485
LilacSat-2 31 Aug 18:57:56 19:01:21 30° 263° (W) 19:04:46 437.200
CINEMA 3 31 Aug 18:58:05 19:02:20 29° 68° (ENE) 19:06:31 145.822/145.860
GOMX 1 31 Aug 19:05:19 19:10:08 38° 264° (W) 19:15:12 467.674
PCSat 31 Aug 19:18:40 19:23:26 30° 49° (NE) 19:28:10 145.827
NOAA 18 31 Aug 19:20:02 19:24:56 32° 263° (W) 19:29:51 137.9125
Cosmos 2504 31 Aug 19:25:41 19:32:24 44° 271° (W) 19:39:07 435.465 / 435.565
STRAND 1 31 Aug 19:26:51 19:31:10 27° 95° (E) 19:35:27 437.568
NOAA 15 31 Aug 19:30:14 19:33:45 18° 268° (W) 19:37:17 137.62
SEEDS 31 Aug 19:32:37 19:36:12 29° 69° (ENE) 19:39:48 437.485
Cubesat XI-IV 31 Aug 19:32:43 19:36:48 22° 267° (W) 19:40:54 437.490
CUBESAT XI-V 31 Aug 19:35:06 19:37:56 16° 297° (WNW) 19:40:48 437.345
AIST 1 31 Aug 19:40:21 19:44:30 39° 77° (ENE) 19:48:36
CUTE-I 31 Aug 19:43:50 19:47:19 18° 269° (W) 19:50:50 437.470
Cosmos 2491 31 Aug 19:50:35 19:57:54 29° 293° (WNW) 20:05:18 435.465 / 435.565
AAUSAT CUBESAT 2 31 Aug 19:50:51 19:54:14 25° 68° (ENE) 19:57:37 437.432
AIST 2 31 Aug 19:53:24 19:57:29 47° 52° (NE) 20:01:31 435.215
FUNcube-1 31 Aug 19:53:38 19:54:56 11° 62° (ENE) 19:56:15 145.935
CANX-2 31 Aug 20:02:47 20:06:58 77° 258° (WSW) 20:11:12 2200.000
COMPASS 1 31 Aug 20:02:53 20:06:47 43° 72° (ENE) 20:10:43 437.405
CUTE 1.7 + AOD 2 31 Aug 20:07:58 20:12:09 78° 258° (WSW) 20:16:23 437.475
UWE-3 31 Aug 20:10:38 20:14:29 28° 69° (ENE) 20:18:16 435.000/436.395/437.385
ZACube-1 31 Aug 20:15:32 20:18:46 21° 67° (ENE) 20:21:59 437.345
CUBEBUG 2 31 Aug 20:21:53 20:26:25 55° 73° (ENE) 20:30:51 437.445
PRISM 31 Aug 20:28:50 20:29:13 10° 90° (E) 20:29:36 437.425
DOVE 4 31 Aug 20:29:34 20:32:15 14° 272° (W) 20:34:58 437.250
CINEMA 3 31 Aug 20:34:47 20:39:19 34° 264° (W) 20:43:49 145.822/145.860
HO-68 31 Aug 20:37:30 20:44:25 50° 260° (W) 20:51:23 435.675
DELFI C3 31 Aug 20:51:40 20:54:27 19° 66° (ENE) 20:57:15 145.870
PCSat 31 Aug 21:01:50 21:06:58 44° 247° (WSW) 21:12:03 145.827
STRAND 1 31 Aug 21:05:43 21:10:24 37° 292° (WNW) 21:15:04 437.568
SEEDS 31 Aug 21:08:32 21:11:53 23° 266° (W) 21:15:16 437.485
Oscar 11 31 Aug 21:12:29 21:16:47 82° 76° (ENE) 21:21:06 145.826/435.025
AIST 1 31 Aug 21:18:49 21:21:46 18° 274° (W) 21:24:41
SO-50 31 Aug 21:22:41 21:23:28 10° 106° (ESE) 21:24:15 436.795
AAUSAT CUBESAT 2 31 Aug 21:26:09 21:29:37 26° 265° (W) 21:33:08 437.432
FUNcube-1 31 Aug 21:26:12 21:30:37 75° 259° (W) 21:34:56 145.935
M-CUBED/EXP-1 PRIME 31 Aug 21:31:25 21:33:45 14° 56° (NE) 21:36:04 437.505
AIST 2 31 Aug 21:32:49 21:35:36 17° 249° (WSW) 21:38:24 435.215
COMPASS 1 31 Aug 21:40:03 21:42:33 16° 268° (W) 21:45:04 437.405
UWE-3 31 Aug 21:46:59 21:50:53 28° 264° (W) 21:54:42 435.000/436.395/437.385
ZACube-1 31 Aug 21:50:43 21:54:50 38° 262° (W) 21:58:53 437.345
HUMSAT D 31 Aug 21:56:24 22:00:23 50° 73° (ENE) 22:04:22 437.325/437.525
CUBEBUG 2 31 Aug 22:00:41 22:03:19 15° 269° (W) 22:05:56 437.445
PRISM 31 Aug 22:00:48 22:04:58 69° 285° (WNW) 22:09:07 437.425
TIGRISAT 31 Aug 22:09:20 22:11:33 14° 91° (E) 22:13:46 435.000
Cosmos 2499 31 Aug 22:16:04 22:22:14 31° 71° (ENE) 22:28:29 435.465 / 435.565
ESTCUBE 1 31 Aug 22:17:06 22:19:52 16° 63° (ENE) 22:22:38 437.505/2401.250
GONETS M04 31 Aug 22:24:59 22:33:36 52° 75° (ENE) 22:42:08
DELFI C3 31 Aug 22:25:30 22:29:04 33° 263° (W) 22:32:41 145.870
UNISAT 6 31 Aug 22:38:15 22:42:04 31° 96° (E) 22:45:52 437.425
CUBEBUG 1 31 Aug 22:42:14 22:45:21 19° 65° (ENE) 22:48:28 437.445
